FENGYUN 1C DEB

Satellite information

Favourite Embed

Satellite Type and Status

DEBRISIN ORBIT

Key statistics

Satellite FENGYUN 1C DEB at a glance.

Uptime

9493

Days in orbit

Revolutions

≈ 14.1

Per day

Orbit

SSO

Sun Synchronous Orbit

Inclination

99.0

Latest

Satellite identification and parameters

Extended collection of information and parameters for FENGYUN 1C DEB.

Object identification

Identified? True

Debris? True

Object name: FENGYUN 1C DEB

International designator: 1999-025XZ

Object number (NORAD): 30264

Object ID (CCSDS): 30264

Country: PEOPLES REPUBLIC OF CHINA (PRC)

Current information (Y/N): Y

RCS size: SMALL

Orbital parameters

Period: 102.366 minutes

Inclination: 98.9831 deg

SMA: 7248.773 km

Apoapsis: 950.238 km

Periapsis: 791.039 km

RAAN: 182.5601 deg

Eccentricy: 0.0109811

Argument of periapsis: 185.087 deg

Mean anomaly: 351.827 deg

Mean motion: 14.06714653 rev/day

Mean motion (dot): 0.00001746 rev/day2

B* drag term: 0.0010203 1/REarth

Two-line elements (TLE)

Creation date: May 6, 2025, 3:54 a.m.

Reference frame: TEME

Reference center: EARTH

Epoch: May 5, 2025, 10:37 p.m. UTC

TLE line 0: 0 FENGYUN 1C DEB

TLE line 1: 1 30264U 99025XZ 25125.94272028 .00001746 00000-0 10203-2 0 9995

TLE line 2: 2 30264 98.9831 182.5601 0109811 185.0870 351.8270 14.06714653934523

Live tracking on map

Real-time ground track for satellite FENGYUN 1C DEB.

In-orbit conjunctions

A list of the most updated potential collisions computed for object FENGYUN 1C DEB.

Target Orbit TCA Probability of collision Miss distance Type
COSMOS 1375 DEB LEO 2025-03-03 14:51:30 0.0001449612 222.0 (m) DEBRIS
COSMOS 928 LEO 2024-11-29 16:18:17 0.000102295 320.0 (m) PAYLOAD

Associated space launch

Chinese polar orbiting meteorological satellite

FENGYUN 1C DEB was lifted into orbit during the mission ‘Long March 4B | Feng Yun 1C’, on board a Long March 4B space rocket.

The launch took place on May 10, 1999, 1:33 a.m. from Launch Complex 7.

For more information about the launch, click the button.

Launch to space Long March 4B | Feng Yun 1C
Long March 4B | Feng Yun 1C

Agency: N/A

Status: Launch Successful

Launch date: May 10, 1999, 1:33 a.m. UTC

Rocket: Long March 4B

Launch pad: Launch Complex 7

Location: Taiyuan Satellite Launch Center, People's Republic of China

...

Latest news about this satellite

There are no fresh news available about this satellite. Check back as we update our databases every day.


Newsletter sign-up

Weekly statistics, charts and insights to help you stay on top of the space industry.